This is the latest recevied weather packets stored in our database for station/object VK6JI-11. If no packets are shown the sender has not sent any weather packets the latest 10 day(s).
| Time | Temp. | Humidity | Pressure | Rain* | Wind** | Luminosity | Snow |
|---|---|---|---|---|---|---|---|
| 1778214054 | 22.78° C | 50% | 1026.7 hPa | 0 mm | - | 649 W/m² | - |
| 1778213933 | 22.78° C | 50% | 1026.6 hPa | 0 mm | - | 651 W/m² | - |
| 1778213812 | 22.78° C | 50% | 1026.6 hPa | 0 mm | - | 649 W/m² | - |
| 1778213692 | 22.78° C | 51% | 1026.7 hPa | 0 mm | - | 649 W/m² | - |
| 1778213571 | 22.78° C | 50% | 1026.8 hPa | 0 mm | - | 651 W/m² | - |
| 1778213451 | 23.33° C | 50% | 1026.8 hPa | 0 mm | - | 651 W/m² | - |
| 1778213332 | 22.78° C | 51% | 1026.8 hPa | 0 mm | - | 651 W/m² | - |
| 1778213211 | 22.78° C | 51% | 1026.9 hPa | 0 mm | - | 649 W/m² | - |
| 1778213090 | 22.78° C | 51% | 1026.8 hPa | 0 mm | - | 649 W/m² | - |
| 1778212969 | 22.78° C | 51% | 1026.8 hPa | 0 mm | - | 647 W/m² | - |
| 1778212846 | 22.78° C | 52% | 1027 hPa | 0 mm | - | 649 W/m² | - |
| 1778212725 | 22.78° C | 52% | 1027 hPa | 0 mm | - | 647 W/m² | - |
| 1778212606 | 22.78° C | 52% | 1026.9 hPa | 0 mm | - | 645 W/m² | - |
| 1778212484 | 22.22° C | 52% | 1027.1 hPa | 0 mm | - | 642 W/m² | - |
| 1778212364 | 22.22° C | 53% | 1027.1 hPa | 0 mm | - | 644 W/m² | - |
| 1778212244 | 22.22° C | 53% | 1027.1 hPa | 0 mm | - | 642 W/m² | - |
| 1778212124 | 22.22° C | 52% | 1027.2 hPa | 0 mm | - | 642 W/m² | - |
| 1778212003 | 22.22° C | 52% | 1027.2 hPa | 0 mm | - | 644 W/m² | - |
| 1778211883 | 22.22° C | 51% | 1027.3 hPa | 0 mm | - | 640 W/m² | - |
| 1778211762 | 21.67° C | 52% | 1027.4 hPa | 0 mm | - | 644 W/m² | - |
| 1778211642 | 21.67° C | 52% | 1027.5 hPa | 0 mm | - | 638 W/m² | - |
| 1778211521 | 21.67° C | 52% | 1027.4 hPa | 0 mm | - | 637 W/m² | - |
| 1778211400 | 21.67° C | 51% | 1027.5 hPa | 0 mm | - | 638 W/m² | - |
| 1778211279 | 21.67° C | 52% | 1027.6 hPa | 0 mm | - | 637 W/m² | - |
| 1778211159 | 21.67° C | 52% | 1027.6 hPa | 0 mm | - | 631 W/m² | - |
* Rain latest hour (hover to see other rain measurements)
** Current wind speed in m/s (hover to see current wind gust speed)